(115755) = 2003 UQ204

Discovered at Socorro on 2003-10-21 by LINEAR.

Orbit

Orbit type: Main Belt

Note: WebGL enabled browser required.

epoch2023-02-25.0
epoch JD2460000.5
perihelion date2020-03-31.10386
perihelion JD2458939.60386
argument of perihelion (°)337.46538
ascending node (°)98.53343
inclination (°)30.06081
eccentricity0.1623606
perihelion distance (AU)2.6189318
Tisserand w.r.t. Jupiter3.0
ΔV w.r.t. Earth (km/sec)13.8
semimajor axis (AU)3.1265623
mean anomaly (°)189.13682
mean daily motion (°/day)0.17828020
aphelion distance (AU)3.634
period (years)5.53
P-vector [x]0.19096456
P-vector [y]0.95956889
P-vector [z]0.20678509
Q-vector [x]-0.84743005
Q-vector [y]0.05485059
Q-vector [z]0.52806603
absolute magnitude13.65
phase slope0.15
uncertainty0
referenceMPEC 2023-G32
observations used1805
oppositions17
arc length (days)8511
first opposition used1999
last opposition used2022
residual rms (arc-secs)0.68
perturbers coarse indicatorM-v
perturbers precise indicator003Ek
first observation date used1999-04-09.0
last observation date used2022-07-28.0
computer nameMPCLINUX
JD of orbit computation2456966.868702
perihelion JD uncertainty (days)1.8081E-04
argument of perihelion uncertainty (°)3.1317E-05
ascending node uncertainty (°)1.5003E-05
inclination uncertainty (°)9.3467E-06
eccentricity uncertainty 8.8612E-08
perihelion distance uncertainty (AU)2.9883E-07
Minimum Orbit Intersection Distances (in AU)
for orbit epoch: 2460000.5, reference: E2023-G32
Mercury2.32105
Venus1.91162
Earth1.64913
Mars1.0562
Jupiter1.62996
Saturn6.41797
Uranus15.6061
Neptune26.8095

Observations

1843 total observations over interval: 1999 04 09.13657 – 2022 07 28.309715
These data are available for download (format description).

Date (UT) J2000 RA J2000 Dec Magn Location Ref
1999 04 09.13657 11 32 11.01 +44 22 26.2 19.1   704 – Lincoln Laboratory ETS, New Mexico MPS 92791
1999 04 09.15566 11 32 10.24 +44 22 21.8 19.1   704 – Lincoln Laboratory ETS, New Mexico MPS 92791
1999 04 09.17477 11 32 09.39 +44 22 17.4 19.3   704 – Lincoln Laboratory ETS, New Mexico MPS 92791
1999 04 09.19394 11 32 08.72 +44 22 13.0 19.3   704 – Lincoln Laboratory ETS, New Mexico MPS 92791
1999 04 09.21313 11 32 08.07 +44 22 08.6 19.3   704 – Lincoln Laboratory ETS, New Mexico MPS 92792
2000 05 03.39543 16 15 40.64 +08 51 57.0 18.1   704 – Lincoln Laboratory ETS, New Mexico MPS 92792
2000 05 03.40768 16 15 40.04 +08 51 58.6 18.5   704 – Lincoln Laboratory ETS, New Mexico MPS 92792
2000 05 03.41995 16 15 39.44 +08 52 00.1 19.1   704 – Lincoln Laboratory ETS, New Mexico MPS 92792
2000 05 03.43230 16 15 38.91 +08 52 00.4 18.9   704 – Lincoln Laboratory ETS, New Mexico MPS 92792
2000 05 03.44455 16 15 38.42 +08 52 02.6 19.2   704 – Lincoln Laboratory ETS, New Mexico MPS 92792
2001 05 25.39842 19 47 26.80 -23 21 38.5 19.5   644 – Palomar Mountain/NEAT MPS 92792
2001 05 25.40925 19 47 26.64 -23 21 42.8 19.7   644 – Palomar Mountain/NEAT MPS 92792
2001 05 25.41984 19 47 26.49 -23 21 46.7 19.7   644 – Palomar Mountain/NEAT MPS 92792
2001 06 16.30567 19 37 38.81 -25 59 36.8 18.8   704 – Lincoln Laboratory ETS, New Mexico MPS 92792
2001 06 16.33106 19 37 37.72 -25 59 48.1 19.3   704 – Lincoln Laboratory ETS, New Mexico MPS 92792
2001 06 16.34341 19 37 37.32 -25 59 53.8 19.2   704 – Lincoln Laboratory ETS, New Mexico MPS 92792
2001 06 16.35568 19 37 36.83 -26 00 00.0 19.1   704 – Lincoln Laboratory ETS, New Mexico MPS 92792
2003 09 21.44341 07 11 06.36 +15 30 17.9 18.5   704 – Lincoln Laboratory ETS, New Mexico MPS 91917
2003 09 21.45535 07 11 07.37 +15 30 20.0 19.3   704 – Lincoln Laboratory ETS, New Mexico MPS 91917
2003 09 21.46748 07 11 08.25 +15 30 22.1 18.9   704 – Lincoln Laboratory ETS, New Mexico MPS 91917
2003 10 21.46597 07 42 46.34 +17 15 17.2 18.6   704 – Lincoln Laboratory ETS, New Mexico MPS 89843
2003 10 21.47854 07 42 46.96 +17 15 20.2 18.4   704 – Lincoln Laboratory ETS, New Mexico MPS 89843
2003 10 21.49124 07 42 47.58 +17 15 23.7 18.1   704 – Lincoln Laboratory ETS, New Mexico MPS 89843
2003 10 24.47712 07 45 10.78 +17 29 53.1 18.3   704 – Lincoln Laboratory ETS, New Mexico MPS 89843
2003 10 24.48925 07 45 11.33 +17 29 57.4 18.8   704 – Lincoln Laboratory ETS, New Mexico MPS 89843
2003 10 24.50142 07 45 11.84 +17 30 01.1 19.0   704 – Lincoln Laboratory ETS, New Mexico MPS 89843
2003 11 18.29267 07 57 42.27 +20 19 05.9 18.1 R 699 – Lowell Observatory-LONEOS MPS 92792
2003 11 18.31269 07 57 42.57 +20 19 16.6   699 – Lowell Observatory-LONEOS MPS 92792
2003 11 18.33263 07 57 42.79 +20 19 27.5   699 – Lowell Observatory-LONEOS MPS 92792
2003 11 18.35263 07 57 43.06 +20 19 38.1   699 – Lowell Observatory-LONEOS MPS 92792
2003 11 21.39407 07 58 12.56 +20 47 30.9 18.2   704 – Lincoln Laboratory ETS, New Mexico MPS 91917
2003 11 21.40714 07 58 12.65 +20 47 38.2 18.5   704 – Lincoln Laboratory ETS, New Mexico MPS 91917
2003 11 21.42056 07 58 12.70 +20 47 46.0 18.3   704 – Lincoln Laboratory ETS, New Mexico MPS 91917
2003 11 21.43366 07 58 12.78 +20 47 53.6 18.8   704 – Lincoln Laboratory ETS, New Mexico MPS 91917
2003 11 21.44661 07 58 12.85 +20 48 00.8 18.4   704 – Lincoln Laboratory ETS, New Mexico MPS 91917
2003 11 23.34367 07 58 23.52 +21 06 16.9 18.7   704 – Lincoln Laboratory ETS, New Mexico MPS 91917
2003 11 23.35628 07 58 23.54 +21 06 24.7 18.5   704 – Lincoln Laboratory ETS, New Mexico MPS 91917
2003 11 23.36894 07 58 23.55 +21 06 32.3 18.7   704 – Lincoln Laboratory ETS, New Mexico MPS 91917
2003 11 23.38160 07 58 23.60 +21 06 39.8 18.5   704 – Lincoln Laboratory ETS, New Mexico MPS 91917
2003 11 23.39444 07 58 23.64 +21 06 47.1 18.3   704 – Lincoln Laboratory ETS, New Mexico MPS 91917
2003 12 17.31745 07 51 33.67 +25 50 45.7 17.5 R 699 – Lowell Observatory-LONEOS MPS 93746
2003 12 17.33080 07 51 33.16 +25 50 56.9   699 – Lowell Observatory-LONEOS MPS 93746
2003 12 17.34418 07 51 32.60 +25 51 07.3   699 – Lowell Observatory-LONEOS MPS 93746
2003 12 17.35749 07 51 32.08 +25 51 18.8   699 – Lowell Observatory-LONEOS MPS 93746
2003 12 18.34720 07 50 53.55 +26 04 46.7 18.2   704 – Lincoln Laboratory ETS, New Mexico MPS 93746
2003 12 18.36036 07 50 53.05 +26 04 57.1 17.8   704 – Lincoln Laboratory ETS, New Mexico MPS 93746
2003 12 18.37332 07 50 52.52 +26 05 07.8 17.6   704 – Lincoln Laboratory ETS, New Mexico MPS 93746
2003 12 18.38629 07 50 51.96 +26 05 18.2 17.6   704 – Lincoln Laboratory ETS, New Mexico MPS 93746
2003 12 18.39932 07 50 51.42 +26 05 29.1 17.9   704 – Lincoln Laboratory ETS, New Mexico MPS 93746
2003 12 23.33135 07 47 15.89 +27 13 39.0 17.9   704 – Lincoln Laboratory ETS, New Mexico MPS 94731
2003 12 23.34456 07 47 15.22 +27 13 50.2 18.4   704 – Lincoln Laboratory ETS, New Mexico MPS 94731
2003 12 23.35789 07 47 14.59 +27 14 00.7 18.2   704 – Lincoln Laboratory ETS, New Mexico MPS 94731
2003 12 23.37079 07 47 13.93 +27 14 12.1 18.2   704 – Lincoln Laboratory ETS, New Mexico MPS 94731
2003 12 23.38388 07 47 13.29 +27 14 22.9 18.1   704 – Lincoln Laboratory ETS, New Mexico MPS 94731
2003 12 28.33227 07 43 01.23 +28 23 42.4 17.7   704 – Lincoln Laboratory ETS, New Mexico MPS 95821
2003 12 28.34530 07 43 00.51 +28 23 53.2 17.9   704 – Lincoln Laboratory ETS, New Mexico MPS 95821
2003 12 28.35832 07 42 59.80 +28 24 03.6 18.1   704 – Lincoln Laboratory ETS, New Mexico MPS 95821
2003 12 28.36182 07 42 59.62 +28 24 06.9 17.6 V 691 – Steward Observatory, Kitt Peak-Spacewatch MPS 95821
2003 12 28.37201 07 42 59.01 +28 24 15.3 18.0   704 – Lincoln Laboratory ETS, New Mexico MPS 95821
2003 12 28.38488 07 42 58.28 +28 24 26.1 18.1   704 – Lincoln Laboratory ETS, New Mexico MPS 95821
2003 12 28.39407 07 42 57.81 +28 24 34.0 17.7 V 691 – Steward Observatory, Kitt Peak-Spacewatch MPS 95821
2003 12 28.42147 07 42 56.27 +28 24 56.8 17.7 V 691 – Steward Observatory, Kitt Peak-Spacewatch MPS 95821
2004 01 11.34922 07 28 55.63 +31 34 02.1 16.8 R 699 – Lowell Observatory-LONEOS MPS 96634
2004 01 11.37273 07 28 54.09 +31 34 20.6   699 – Lowell Observatory-LONEOS MPS 96634
2004 01 11.39644 07 28 52.52 +31 34 38.5   699 – Lowell Observatory-LONEOS MPS 96634
2004 01 11.41986 07 28 50.99 +31 34 57.0   699 – Lowell Observatory-LONEOS MPS 96634
2004 01 19.26743 07 20 27.30 +33 10 09.6 17.5   704 – Lincoln Laboratory ETS, New Mexico MPS 97020
2004 01 19.27950 07 20 26.50 +33 10 17.9 18.0   704 – Lincoln Laboratory ETS, New Mexico MPS 97020
2004 01 19.29195 07 20 25.76 +33 10 25.8 17.7   704 – Lincoln Laboratory ETS, New Mexico MPS 97020
2004 01 19.30432 07 20 24.88 +33 10 34.5 19.3   704 – Lincoln Laboratory ETS, New Mexico MPS 97020
2004 01 19.31725 07 20 24.03 +33 10 43.5 17.7   704 – Lincoln Laboratory ETS, New Mexico MPS 97020
2004 01 31.22719 07 08 47.83 +35 10 45.8 18.3   704 – Lincoln Laboratory ETS, New Mexico MPS 97819
2004 01 31.23946 07 08 47.02 +35 10 51.5 18.7   704 – Lincoln Laboratory ETS, New Mexico MPS 97819
2004 01 31.25162 07 08 46.51 +35 10 59.0 18.5   704 – Lincoln Laboratory ETS, New Mexico MPS 97819
2004 01 31.26380 07 08 45.82 +35 11 05.4 18.2   704 – Lincoln Laboratory ETS, New Mexico MPS 97819
2004 01 31.27837 07 08 45.04 +35 11 12.9 18.6   704 – Lincoln Laboratory ETS, New Mexico MPS 97819
2004 02 09.28655 07 01 58.36 +36 20 42.6 18.0   644 – Palomar Mountain/NEAT MPS 98803
2004 02 09.31066 07 01 57.41 +36 20 52.4 17.6   644 – Palomar Mountain/NEAT MPS 98803
2004 02 09.34449 07 01 56.08 +36 21 05.7 17.7   644 – Palomar Mountain/NEAT MPS 98803
2004 02 11.22947 07 00 48.40 +36 33 23.8 17.9   704 – Lincoln Laboratory ETS, New Mexico MPS 98803
2004 02 11.24150 07 00 47.97 +36 33 28.3 18.3   704 – Lincoln Laboratory ETS, New Mexico MPS 98803
2004 02 11.25337 07 00 47.56 +36 33 32.1 18.0   704 – Lincoln Laboratory ETS, New Mexico MPS 98803
2004 02 11.26603 07 00 47.08 +36 33 37.3 18.3   704 – Lincoln Laboratory ETS, New Mexico MPS 98803
2004 02 11.27790 07 00 46.62 +36 33 41.6 18.2   704 – Lincoln Laboratory ETS, New Mexico MPS 98803
2004 02 22.82502 06 56 18.92 +37 33 49.8 19.3 V 951 – Highworth MPS 100095
